Location: Ferintosh
(52.7647°N, 112.9692°W)
Time: 15:34:48
(UTC+00:00)

Transit 2A - Pass Details

Date: 22 May 2024
Orbit: 592 x 959 km, 66.7° (Epoch: 23 June)

Event Time Altitude Azimuth Distance (km) Brightness Sun altitude
Rises 04:47:17 0° 151° (SSE) 2,935 - -8.8°
Exits shadow 04:51:03 - 119° (ESE) 2,156 7.8 -9.2°
Reaches altitude 10° 04:51:33 10° 113° (ESE) 2,119 7.8 -9.2°
Maximum altitude 04:52:30 11° 101° (E) 2,105 7.8 -9.3°
Drops below altitude 10° 04:53:27 10° 90° (E) 2,164 8.0 -9.4°
Sets 04:58:04 0° 52° (NE) 3,205 9.3 -9.8°
